Tracking 30918 objects as of 2-Jul-2025
HD Live streaming from Space Station
objects crossing your sky now

SL-14 R/B

Track SL-14 R/B now!
10-day predictions


NORAD ID: 27061
Int'l Code: 2001-058G
Perigee: 1,421.1 km
Apogee: 1,489.2 km
Inclination: 82.5 °
Period: 114.8 minutes
Semi major axis: 7826 km
RCS: 6.0466 m2 (large)
Launch date: December 28, 2001
Source: Commonwealth of Independent States (former USSR) (CIS)
Launch site: PLESETSK MISSILE AND SPACE COMPLEX (PKMTR)

Note: This is a ROCKET BODY
Your satellite tracking list
Your tracking list is empty




NASA's NSSDC Master Catalog

Two Line Element Set (TLE):
1 27061U 01058G   25182.91029108  .00000032  00000-0  13433-3 0  9990
2 27061  82.5442 155.4179 0043485 173.4779 247.0434 12.53951683 76120
Source of the keplerian elements: AFSPC